Theta_e
322 319 311 321 321 321 323 323 323 324 332 333 333 331 333 334 332 332 330 328 328 327 326 324 322 322 320 319 320 319 319 319 319 319 319 318 318 317 317 317 316 316 316 316 316 315 313 311 311
322 314 318 324 319 323 319 322 324 325 335 336 333 332 333 332 334 333 329 328 328 326 326 325 323 322 321 320 320 320 319 319 319 319 318 318 318 318 318 317 317 317 317 318 319 319 321 321 321
319 313 322 322 320 321 320 324 325 330 333 335 333 333 334 335 335 331 329 328 328 326 325 325 325 323 322 320 320 320 320 320 319 319 319 319 319 319 319 318 318 317 317 318 319 319 321 322 323
317 321 322 322 325 324 321 326 327 327 330 334 334 332 333 335 334 331 330 328 327 326 326 325 325 324 323 322 320 321 320 320 320 320 319 319 320 320 319 319 319 319 318 320 320 320 320 324 328
317 322 319 321 322 324 325 326 327 325 328 331 332 332 331 336 334 333 332 331 331 329 329 326 325 325 324 323 321 320 321 320 320 320 320 319 320 320 320 320 320 319 318 320 322 322 321 321 326
321 321 321 320 320 323 323 326 327 326 329 331 334 332 332 336 335 333 332 332 332 332 331 329 328 325 324 323 321 320 320 321 320 320 320 319 320 320 320 320 320 320 319 320 321 322 322 323 323
320 318 321 323 325 326 325 326 326 327 328 331 334 330 332 334 335 334 332 333 332 333 333 332 329 327 324 323 321 320 320 320 320 320 320 319 319 320 320 320 320 320 320 320 322 321 322 324 325
321 316 321 321 323 323 325 327 329 328 328 329 330 329 330 332 333 333 333 333 332 332 333 333 332 330 328 325 323 321 320 319 319 320 320 319 319 319 320 320 320 320 321 321 323 322 322 323 325
321 317 318 321 323 323 325 322 328 328 328 328 329 329 330 331 332 332 333 333 332 331 331 332 333 333 331 328 326 323 321 319 319 319 319 319 319 319 319 319 320 320 321 322 324 324 324 324 324
320 316 318 318 321 323 323 322 323 325 324 325 327 327 329 330 331 332 333 332 332 331 331 331 333 333 333 332 330 327 323 322 320 319 319 318 318 318 319 319 319 320 321 322 324 326 328 327 325
327 324 318 318 320 322 322 322 323 322 322 325 326 326 327 328 327 331 330 331 331 331 332 332 331 332 333 334 334 332 329 324 323 320 319 319 318 318 318 319 319 320 321 322 324 327 329 328 327
328 327 326 324 322 324 322 323 323 323 323 324 325 325 326 326 327 327 328 329 329 330 329 330 330 330 330 333 334 334 333 330 328 325 321 320 318 318 318 319 319 320 322 323 326 328 330 329 328
327 326 328 329 329 329 328 329 328 328 328 327 326 325 326 327 328 328 328 327 326 327 328 327 327 327 328 329 331 332 333 334 332 329 325 322 321 319 318 318 319 320 321 324 327 328 330 329 329
315 318 323 327 326 324 324 324 324 325 326 327 327 326 326 326 327 327 328 327 326 326 326 327 327 327 328 328 329 329 331 333 334 332 330 326 322 320 320 319 319 319 320 324 330 329 330 331 331
313 313 313 314 317 320 323 323 323 324 324 324 324 324 325 325 325 326 326 326 326 326 326 325 327 326 327 328 328 329 329 331 331 333 333 331 325 322 322 322 321 320 321 326 332 330 331 331 332
313 311 314 316 314 316 319 322 323 324 324 323 323 324 324 326 326 326 326 326 326 326 325 325 326 326 326 328 328 328 328 330 329 330 333 335 333 328 327 326 323 322 322 330 334 331 332 333 332
312 316 314 315 315 317 317 320 320 322 323 322 322 323 323 324 325 325 325 325 325 325 325 326 326 327 326 327 327 328 329 328 329 330 332 334 336 335 334 330 324 323 326 336 331 331 332 332 330
312 315 316 317 316 316 316 318 318 320 321 321 322 322 323 323 324 324 325 325 324 324 325 325 325 326 326 327 327 328 328 328 329 331 333 336 338 338 336 333 332 328 335 332 332 330 330 331 331
311 312 314 315 316 317 317 318 318 318 318 319 320 320 321 321 322 322 322 324 324 324 324 326 326 327 326 328 328 328 327 328 329 333 336 339 340 340 339 338 335 336 336 332 331 330 331 329 328
309 310 310 311 312 313 313 313 313 313 314 317 318 319 319 321 321 321 322 322 323 324 323 324 324 327 328 327 328 328 327 328 332 337 339 341 341 340 340 338 334 333 336 332 332 329 329 329 329
308 309 310 311 312 312 312 314 315 314 313 315 315 316 317 318 318 319 321 322 322 322 323 323 324 326 328 327 328 327 328 332 336 338 341 342 341 341 337 335 332 332 332 332 330 330 330 327 327
307 309 311 312 312 312 312 314 314 314 314 313 314 315 316 317 317 318 319 320 321 321 322 322 325 326 327 327 327 328 330 333 333 338 341 342 342 338 334 332 332 331 330 330 331 331 325 325 325
307 307 308 311 310 311 311 311 313 312 312 311 312 313 314 315 315 316 316 317 318 319 320 323 326 327 327 328 329 332 334 337 339 341 342 341 338 333 332 332 331 329 329 330 331 326 324 324 324
307 308 307 307 308 310 311 311 312 311 311 312 311 313 315 315 317 318 320 321 321 321 322 324 327 328 329 331 334 336 338 340 342 341 337 336 333 332 331 331 329 330 330 330 326 324 323 323 324
305 304 306 308 308 308 310 311 312 310 311 312 313 314 316 317 317 318 318 319 321 323 324 325 330 331 335 336 339 342 343 342 342 341 339 332 331 331 331 331 331 331 328 326 324 322 324 324 323
304 303 305 312 312 309 310 313 312 312 312 313 313 314 316 317 318 318 319 321 322 324 327 331 336 337 338 342 344 344 343 342 341 337 331 331 332 332 332 332 330 326 325 326 323 324 324 323 324
307 304 306 305 307 306 309 310 311 312 313 312 312 314 316 318 319 320 320 325 329 334 338 339 338 338 343 344 343 343 341 337 333 332 332 332 331 331 330 328 324 325 325 325 325 324 325 325 325
307 306 305 302 307 310 310 311 312 312 312 314 313 312 319 322 319 327 332 334 337 340 339 339 339 341 342 341 339 337 335 332 331 332 331 331 329 326 324 323 324 325 326 326 326 326 326 326 326
307 307 307 303 304 310 312 311 310 312 312 312 313 324 327 325 324 334 336 338 339 338 339 340 340 340 340 338 334 333 332 331 331 330 329 329 326 324 323 325 326 327 327 327 326 326 326 325 325
307 307 308 309 309 306 307 308 309 310 311 312 314 319 331 329 334 338 338 338 338 339 340 341 341 339 336 334 332 332 331 328 328 328 327 327 325 325 326 327 327 327 327 327 326 325 326 325 324
Wind_Speed
7 5 7 6 2 4 4 7 3 5 2 0 3 7 12 5 8 5 19 21 19 21 23 24 21 17 15 13 13 13 12 11 10 9 9 8 7 6 5 4 3 2 1 2 3 3 3 3 3
7 8 8 2 4 3 5 5 6 6 4 10 4 7 4 7 14 4 24 25 21 20 22 24 20 18 16 16 15 15 14 13 11 10 9 7 7 6 5 4 3 2 1 1 2 2 2 3 4
9 11 2 3 4 5 5 5 5 2 7 2 4 6 5 3 12 17 23 23 22 21 22 21 18 19 18 17 17 17 16 15 12 11 9 7 6 4 4 4 3 2 1 0 1 2 3 4 5
8 7 2 2 7 6 6 4 4 10 11 2 1 6 4 9 11 20 21 20 22 19 17 18 17 19 20 20 19 19 18 17 15 13 11 9 8 6 5 3 2 2 1 1 1 2 3 5 5
11 2 2 3 5 6 4 12 11 6 6 13 8 5 4 6 17 21 19 19 16 16 15 17 19 20 23 23 22 22 21 20 18 16 14 13 11 10 7 4 2 1 1 2 3 3 3 5 7
5 1 1 7 6 5 6 12 7 6 9 5 4 6 3 9 15 18 17 11 11 10 13 17 18 24 25 27 25 23 23 22 22 20 18 17 16 13 10 8 5 3 2 3 4 5 5 5 7
4 4 5 3 3 5 5 8 5 5 4 3 1 7 6 13 15 17 14 12 10 13 15 17 21 24 28 29 29 27 26 26 26 24 22 21 19 17 14 11 9 6 4 5 5 5 5 6 8
6 4 3 5 5 7 5 5 9 6 2 6 5 3 3 8 16 17 14 15 15 16 19 22 22 27 30 32 32 32 30 30 29 28 26 24 23 21 19 15 12 9 7 7 6 5 4 6 7
7 2 5 7 8 5 4 2 7 4 5 7 2 7 14 10 16 17 19 19 19 19 21 24 27 28 30 33 33 35 34 33 32 31 30 29 29 27 23 20 15 12 10 9 8 7 6 5 6
7 5 10 6 8 4 5 5 6 4 4 2 9 5 9 9 4 19 21 21 22 23 24 27 30 30 34 35 35 38 38 38 37 37 36 34 33 30 26 23 19 15 13 12 12 10 9 6 6
9 10 13 7 15 14 10 12 10 5 7 12 12 4 11 15 16 12 17 24 25 24 29 29 29 32 36 39 39 40 41 42 41 41 39 38 36 33 31 27 23 19 16 15 15 13 12 9 7
5 16 19 8 14 5 7 17 17 18 18 28 30 33 31 27 23 28 26 22 23 21 21 23 27 33 36 41 43 43 44 45 45 45 43 42 41 36 35 30 26 23 19 18 17 15 13 11 10
14 10 16 28 21 19 15 21 16 29 35 38 40 39 38 37 33 30 26 18 26 22 20 21 28 30 29 36 42 42 42 45 47 48 46 46 45 40 36 31 28 26 22 20 19 17 15 13 12
3 12 17 17 17 11 7 17 11 13 28 31 29 37 39 41 39 35 32 32 24 27 31 30 32 28 31 38 35 36 41 42 47 48 47 49 47 44 35 33 31 28 24 21 20 17 17 15 14
11 6 4 8 10 11 15 22 30 31 30 35 36 39 40 42 38 37 35 30 31 33 34 35 36 40 33 32 35 35 37 37 39 44 46 46 46 43 34 34 31 28 26 23 20 18 18 18 17
4 5 13 13 8 6 14 29 25 20 28 33 35 34 35 38 38 33 34 37 36 37 42 38 40 40 31 29 32 35 34 34 34 37 41 42 40 34 33 31 32 28 26 21 18 18 19 19 19
4 16 9 6 9 11 12 31 11 23 24 29 29 35 35 37 39 41 40 36 38 42 38 40 38 34 29 28 33 36 31 32 36 37 38 36 29 26 27 26 26 25 23 17 15 17 19 20 19
10 6 2 5 5 14 11 30 13 19 19 26 30 35 37 38 39 39 43 47 46 36 39 39 35 35 34 29 30 33 30 32 36 36 33 28 22 21 20 21 20 23 20 14 13 15 18 19 19
5 3 1 1 2 2 16 21 18 16 22 21 30 33 36 39 47 49 46 38 32 34 31 32 30 28 30 27 29 31 30 33 36 33 25 20 18 20 20 19 17 19 16 13 12 14 16 19 20
10 2 4 5 9 4 6 12 13 10 13 23 27 30 33 39 42 43 40 39 38 32 32 32 32 27 25 27 28 30 30 33 32 22 18 16 19 19 17 12 15 14 16 15 13 15 18 21 21
4 5 3 6 9 10 9 16 15 12 16 27 30 36 38 38 40 39 35 32 33 35 34 35 34 27 24 26 28 30 29 25 22 20 18 19 19 17 10 13 10 12 14 13 15 16 19 19 17
11 4 2 3 3 7 3 10 16 15 20 14 18 32 36 37 41 43 41 40 40 38 37 38 32 25 23 26 27 27 26 21 20 17 17 19 18 13 14 14 12 9 12 15 16 18 17 15 13
6 11 8 4 4 4 6 4 14 4 13 9 14 29 37 48 45 46 43 43 40 37 34 33 23 23 22 22 20 19 16 14 12 15 20 19 17 17 15 13 10 13 14 15 16 16 13 12 11
4 5 4 3 3 6 7 8 22 10 18 14 8 24 33 29 27 25 23 22 22 24 25 25 19 20 19 15 13 11 11 14 17 19 19 16 15 14 12 13 13 13 13 14 11 10 11 10 10
4 5 1 1 3 9 14 9 21 3 7 6 8 17 18 18 23 26 26 23 18 17 18 18 18 17 15 13 13 12 12 13 15 16 15 14 14 11 12 13 11 13 13 10 8 7 5 4 8
6 8 4 6 5 4 7 12 8 13 15 19 18 23 21 22 24 24 20 16 18 17 14 15 17 17 15 16 17 16 15 15 14 12 12 10 10 9 10 11 12 11 9 8 9 9 9 7 10
4 5 9 2 3 1 5 7 9 12 19 8 8 16 24 26 23 20 18 13 10 13 17 18 18 17 19 20 20 19 17 15 15 14 12 11 10 8 10 9 8 6 7 6 8 10 12 11 11
5 4 4 1 4 5 5 6 7 7 9 5 9 11 28 34 22 9 6 10 16 19 20 19 18 20 21 21 20 19 18 15 13 14 12 10 8 7 7 8 6 5 4 5 8 11 11 11 8
1 1 2 3 4 3 3 5 6 4 5 7 9 19 28 30 13 10 14 20 22 21 21 21 21 23 23 21 20 19 16 14 12 10 9 8 8 8 8 7 5 3 3 5 8 10 10 8 7
2 3 2 4 6 7 3 6 5 5 4 6 12 26 24 11 10 16 23 24 24 23 24 24 24 24 22 20 17 14 13 10 9 8 8 10 11 10 9 7 4 1 5 8 8 9 10 13 11
Wind_Direction
200 194 165 166 84 74 252 258 237 296 250 26 187 166 195 193 161 207 160 168 172 183 187 186 187 192 192 188 188 192 186 182 177 173 168 159 152 145 124 106 109 128 167 202 220 238 260 258 261
195 173 163 188 115 137 255 248 230 224 292 328 281 155 162 224 188 188 163 173 179 184 191 190 187 196 199 199 198 198 199 199 192 188 183 177 169 160 139 117 91 88 130 175 185 200 247 270 282
183 166 190 161 174 193 221 222 223 238 299 236 296 207 188 219 218 169 166 171 179 187 195 194 192 201 205 207 207 207 207 209 207 208 201 196 192 184 169 145 102 68 43 243 246 278 271 270 287
176 156 265 153 227 252 205 242 350 337 337 271 202 275 224 181 190 171 170 176 185 183 192 199 203 209 212 213 213 215 216 216 216 217 218 215 214 208 199 186 136 78 42 249 235 276 286 284 280
182 163 181 255 259 264 233 264 287 268 252 242 208 255 269 177 157 169 177 177 174 179 195 202 211 219 220 220 218 219 221 222 222 224 223 226 227 223 218 223 210 190 323 303 290 307 297 285 287
169 158 149 230 241 265 269 264 254 263 268 268 179 172 240 190 179 173 185 180 189 202 207 212 219 224 227 226 222 224 228 229 230 229 227 228 231 228 227 230 238 244 290 300 302 309 306 293 280
172 122 225 215 225 280 251 242 213 244 302 276 86 152 182 192 191 198 193 198 207 217 229 229 227 229 230 230 229 229 233 235 233 232 233 234 234 233 231 231 237 249 276 281 287 303 310 313 300
212 131 224 228 183 262 234 259 243 203 157 49 7 16 310 229 198 201 205 213 221 226 232 237 241 236 236 235 233 232 235 238 237 237 237 237 237 235 235 234 236 246 264 265 269 276 286 317 313
195 141 223 220 170 237 229 284 224 245 276 324 187 340 330 307 206 209 214 223 228 232 240 246 249 248 246 243 240 237 236 239 241 241 239 239 239 236 235 237 237 242 257 257 259 258 272 302 323
181 189 219 190 212 227 247 268 297 287 355 256 279 282 298 357 222 238 227 238 240 240 243 247 249 250 248 249 247 244 241 239 241 241 240 240 241 239 238 238 238 240 252 253 257 256 261 275 306
196 220 227 219 224 246 272 285 276 331 313 263 290 279 285 291 295 253 271 269 261 258 258 255 260 261 257 253 251 250 247 243 243 244 242 243 243 240 238 236 238 241 250 257 256 254 262 270 278
227 226 229 249 236 247 252 282 287 278 260 280 285 289 289 279 276 282 286 277 271 260 271 271 271 275 266 258 256 253 252 249 247 247 245 244 243 241 241 239 242 245 249 254 253 255 261 263 270
231 215 221 240 248 250 259 258 262 279 278 280 281 283 281 289 290 284 291 269 287 267 284 288 284 282 273 259 256 253 254 253 251 250 248 248 245 243 244 242 244 248 250 253 252 256 261 263 266
159 225 234 239 246 244 250 269 252 258 269 269 273 276 279 280 281 287 284 283 278 290 299 304 297 291 285 262 262 257 253 253 254 253 252 250 247 246 246 248 248 248 252 254 254 257 261 265 265
256 284 280 228 237 246 246 268 253 254 259 262 265 265 270 273 277 278 280 279 291 295 304 303 296 299 295 281 263 259 259 254 255 256 256 254 250 249 249 252 248 248 252 250 251 256 259 261 267
207 162 242 236 183 241 169 258 247 254 243 250 250 255 263 270 275 276 278 284 290 297 304 297 293 296 292 279 266 265 261 247 248 254 257 258 255 252 252 250 246 246 248 240 251 260 263 266 272
248 237 214 247 216 200 191 253 251 249 256 260 268 271 273 274 275 275 279 284 292 302 296 295 297 293 293 277 267 264 254 245 248 253 257 261 261 252 243 240 238 240 236 238 259 265 269 270 272
222 231 207 204 197 189 205 246 256 268 256 259 261 266 270 272 272 278 283 288 294 290 291 292 295 294 290 268 259 256 242 244 249 253 256 261 254 239 235 237 233 225 222 242 264 274 270 264 271
42 71 56 322 263 281 222 249 253 251 258 257 264 263 266 271 276 281 282 285 285 285 294 295 298 281 279 255 251 245 240 244 249 251 254 248 225 226 229 225 220 212 219 245 260 263 263 270 276
271 264 256 266 260 214 275 277 280 264 258 259 259 261 262 272 275 277 280 277 276 280 296 297 297 280 260 245 248 240 242 243 248 253 245 218 217 218 220 216 201 216 224 242 263 272 276 277 278
203 218 209 226 293 283 301 283 272 262 236 251 255 262 263 262 271 275 275 274 276 283 288 295 293 284 252 246 244 240 240 244 240 231 215 207 209 208 205 210 208 214 224 253 271 275 280 281 275
242 178 248 325 166 258 21 289 271 271 264 249 253 259 265 269 267 269 272 275 278 279 283 290 281 268 247 242 241 239 242 242 239 227 205 203 203 197 196 198 208 224 250 265 270 281 282 274 269
244 200 226 223 253 269 258 310 281 241 266 270 252 256 257 260 264 269 272 275 276 275 275 277 261 243 239 237 239 237 239 231 216 191 189 187 189 185 182 199 216 247 260 267 276 278 273 270 258
205 180 166 163 150 253 207 194 279 251 248 255 260 253 255 263 270 275 278 280 277 273 266 260 240 226 224 221 218 212 210 195 186 182 181 180 176 181 195 209 233 248 258 272 268 265 267 266 258
161 103 145 91 175 231 181 184 236 259 306 242 278 287 289 277 280 279 281 281 278 262 257 238 217 205 191 188 178 170 180 188 188 187 185 181 181 194 214 221 241 258 264 247 249 245 245 277 273
184 163 178 177 183 220 199 226 248 234 255 276 278 277 293 298 293 285 283 272 273 254 231 201 184 173 169 162 158 158 171 174 173 177 177 181 195 204 215 232 250 251 227 232 234 230 238 248 251
198 167 212 23 282 198 212 279 288 283 286 290 290 308 310 315 311 294 274 262 232 188 168 166 162 164 159 159 158 160 166 168 167 175 182 186 190 207 233 236 214 206 222 228 239 245 255 259 244
180 183 107 331 206 247 254 258 233 318 286 355 324 302 321 325 286 268 211 172 156 155 155 160 161 160 158 159 157 158 159 164 170 173 181 192 206 214 199 184 187 196 217 240 248 251 246 250 238
153 293 201 174 185 211 304 266 220 248 70 334 304 331 323 320 251 184 162 152 154 156 156 157 157 157 155 154 152 153 155 158 165 180 191 195 178 173 164 156 164 184 239 279 274 252 240 233 225
338 257 230 205 253 252 130 278 330 112 63 8 348 335 334 336 178 164 156 153 155 155 157 158 157 156 153 152 153 156 157 163 168 169 168 161 162 158 146 136 115 344 300 292 276 252 235 221 215